• In Uzbekistan
  • List of Countries
  • For 7 days
  • Water Temperature
  • Satellite Maps
  • Weather Map
  • Weather Widgets
  • user-avatar
    Login

    Hourly Weather Castilho

    Today, 14 December, Thursday

    Time Temperature Precipitation Wind Pressure Humidity
    00:00 +26°C° 0.3 mm 3 mps 727 mmHg 79%
    01:00 +26°C° 0.1 mm 3 mps 727 mmHg 81%
    02:00 +25°C° 0.1 mm 3 mps 727 mmHg 82%
    03:00 +25°C° 0.1 mm 3 mps 727 mmHg 84%
    04:00 +24°C° 0 mm 3 mps 727 mmHg 85%
    05:00 +24°C° 0 mm 3 mps 727 mmHg 86%
    06:00 +24°C° 0 mm 3 mps 727 mmHg 87%
    07:00 +25°C° 0 mm 3 mps 727 mmHg 80%
    08:00 +27°C° 0 mm 4 mps 728 mmHg 74%
    09:00 +28°C° 0 mm 5 mps 728 mmHg 67%
    10:00 +30°C° 0 mm 4 mps 728 mmHg 63%
    11:00 +32°C° 0 mm 4 mps 728 mmHg 59%
    12:00 +33°C° 0 mm 4 mps 728 mmHg 55%
    13:00 +34°C° 0 mm 3 mps 727 mmHg 54%
    14:00 +34°C° 0 mm 3 mps 726 mmHg 52%
    15:00 +34°C° 0 mm 3 mps 726 mmHg 51%
    16:00 +34°C° 0 mm 3 mps 725 mmHg 55%
    17:00 +33°C° 0 mm 3 mps 725 mmHg 58%
    18:00 +33°C° 0 mm 3 mps 725 mmHg 62%
    19:00 +30°C° 0 mm 3 mps 725 mmHg 65%
    20:00 +29°C° 0 mm 2 mps 725 mmHg 68%
    21:00 +27°C° 0 mm 2 mps 725 mmHg 71%
    22:00 +27°C° 0 mm 2 mps 725 mmHg 72%
    23:00 +27°C° 0 mm 2 mps 725 mmHg 73%

    Tomorrow, 15 December, Friday

    Time Temperature Precipitation Wind Pressure Humidity
    00:00 +26°C° 0 mm 2 mps 726 mmHg 74%
    01:00 +26°C° 0 mm 2 mps 725 mmHg 75%
    02:00 +26°C° 0 mm 2 mps 725 mmHg 76%
    03:00 +25°C° 0 mm 2 mps 725 mmHg 76%
    04:00 +25°C° 0 mm 2 mps 725 mmHg 78%
    05:00 +25°C° 0 mm 1 mps 725 mmHg 80%
    06:00 +24°C° 0 mm 1 mps 726 mmHg 82%
    07:00 +26°C° 0 mm 2 mps 726 mmHg 77%
    08:00 +28°C° 0 mm 3 mps 727 mmHg 71%
    09:00 +29°C° 0 mm 3 mps 727 mmHg 66%
    10:00 +31°C° 0 mm 3 mps 727 mmHg 60%
    11:00 +33°C° 0 mm 3 mps 726 mmHg 55%
    12:00 +34°C° 0 mm 3 mps 726 mmHg 50%
    13:00 +35°C° 0 mm 3 mps 725 mmHg 49%
    14:00 +35°C° 0 mm 3 mps 725 mmHg 47%
    15:00 +36°C° 0 mm 2 mps 724 mmHg 45%
    16:00 +35°C° 0 mm 3 mps 723 mmHg 49%
    17:00 +34°C° 0 mm 3 mps 723 mmHg 53%
    18:00 +34°C° 0 mm 3 mps 723 mmHg 57%
    19:00 +31°C° 0 mm 3 mps 723 mmHg 60%
    20:00 +30°C° 0 mm 3 mps 723 mmHg 64%
    21:00 +28°C° 0 mm 2 mps 724 mmHg 67%
    22:00 +28°C° 0 mm 3 mps 724 mmHg 69%
    23:00 +27°C° 0 mm 3 mps 724 mmHg 71%

    Day after tomorrow, 16 December, Saturday

    Time Temperature Precipitation Wind Pressure Humidity
    00:00 +27°C° 0 mm 3 mps 725 mmHg 73%
    01:00 +26°C° 0 mm 3 mps 724 mmHg 76%
    02:00 +26°C° 0 mm 2 mps 724 mmHg 79%
    03:00 +25°C° 0 mm 2 mps 724 mmHg 81%
    04:00 +25°C° 0 mm 2 mps 724 mmHg 84%
    05:00 +25°C° 0 mm 2 mps 724 mmHg 86%
    06:00 +24°C° 0 mm 2 mps 724 mmHg 88%
    07:00 +26°C° 0.2 mm 2 mps 725 mmHg 81%
    08:00 +28°C° 0.2 mm 2 mps 725 mmHg 74%
    09:00 +30°C° 0.2 mm 3 mps 726 mmHg 68%
    10:00 +31°C° 0.2 mm 3 mps 726 mmHg 63%
    11:00 +33°C° 0.2 mm 3 mps 726 mmHg 58%
    12:00 +34°C° 0.2 mm 2 mps 725 mmHg 53%
    13:00 +34°C° 0.2 mm 2 mps 725 mmHg 53%
    14:00 +34°C° 0.2 mm 2 mps 724 mmHg 52%
    15:00 +34°C° 0.2 mm 1 mps 723 mmHg 52%
    16:00 +34°C° 0 mm 2 mps 723 mmHg 54%
    17:00 +34°C° 0 mm 2 mps 723 mmHg 57%
    18:00 +32°C° 0 mm 2 mps 722 mmHg 60%
    19:00 +31°C° 0 mm 3 mps 723 mmHg 63%
    20:00 +30°C° 0 mm 3 mps 723 mmHg 67%
    21:00 +28°C° 0 mm 3 mps 723 mmHg 70%
    22:00 +28°C° 0 mm 3 mps 724 mmHg 71%
    23:00 +27°C° 0 mm 4 mps 724 mmHg 73%

    17 December, Sunday

    Time Temperature Precipitation Wind Pressure Humidity
    00:00 +27°C° 0 mm 4 mps 724 mmHg 74%
    01:00 +27°C° 0 mm 4 mps 724 mmHg 76%
    02:00 +26°C° 0 mm 4 mps 724 mmHg 78%
    03:00 +26°C° 0 mm 3 mps 723 mmHg 80%
    04:00 +25°C° 0 mm 3 mps 724 mmHg 81%
    05:00 +25°C° 0 mm 3 mps 724 mmHg 82%
    06:00 +25°C° 0 mm 3 mps 725 mmHg 82%
    07:00 +27°C° 0 mm 4 mps 725 mmHg 75%
    08:00 +28°C° 0 mm 4 mps 726 mmHg 68%
    09:00 +30°C° 0 mm 5 mps 727 mmHg 61%
    10:00 +33°C° 0 mm 5 mps 727 mmHg 56%
    11:00 +34°C° 0 mm 4 mps 727 mmHg 52%
    12:00 +35°C° 0 mm 4 mps 727 mmHg 47%
    13:00 +35°C° 0 mm 3 mps 726 mmHg 48%
    14:00 +35°C° 0 mm 2 mps 726 mmHg 48%
    15:00 +34°C° 0 mm 1 mps 725 mmHg 49%
    16:00 +34°C° 0 mm 1 mps 725 mmHg 51%
    17:00 +33°C° 0 mm 1 mps 725 mmHg 53%
    18:00 +33°C° 0 mm 1 mps 725 mmHg 55%
    19:00 +32°C° 0.2 mm 2 mps 725 mmHg 60%
    20:00 +30°C° 0.2 mm 3 mps 726 mmHg 64%
    21:00 +28°C° 0.2 mm 4 mps 726 mmHg 68%
    22:00 +28°C° 0 mm 4 mps 726 mmHg 71%
    23:00 +27°C° 0 mm 4 mps 726 mmHg 73%

    18 December, Monday

    Time Temperature Precipitation Wind Pressure Humidity
    00:00 +26°C° 0 mm 3 mps 726 mmHg 75%
    01:00 +26°C° 0 mm 3 mps 726 mmHg 77%
    02:00 +25°C° 0 mm 2 mps 726 mmHg 79%
    03:00 +25°C° 0 mm 2 mps 725 mmHg 81%
    04:00 +25°C° 0 mm 2 mps 726 mmHg 82%
    05:00 +24°C° 0 mm 2 mps 726 mmHg 84%
    06:00 +24°C° 0 mm 2 mps 726 mmHg 85%
    07:00 +26°C° 0 mm 2 mps 727 mmHg 77%
    08:00 +28°C° 0 mm 3 mps 727 mmHg 70%
    09:00 +30°C° 0 mm 3 mps 728 mmHg 63%
    10:00 +31°C° 0 mm 3 mps 727 mmHg 57%
    11:00 +34°C° 0 mm 3 mps 727 mmHg 52%
    12:00 +35°C° 0 mm 2 mps 727 mmHg 46%
    13:00 +35°C° 0 mm 2 mps 727 mmHg 46%
    14:00 +35°C° 0 mm 2 mps 726 mmHg 47%
    15:00 +34°C° 0 mm 1 mps 726 mmHg 48%
    16:00 +33°C° 0 mm 1 mps 726 mmHg 50%
    17:00 +33°C° 0 mm 1 mps 726 mmHg 53%
    18:00 +32°C° 0 mm 1 mps 726 mmHg 56%
    19:00 +31°C° 0 mm 2 mps 726 mmHg 59%
    20:00 +30°C° 0 mm 2 mps 726 mmHg 62%
    21:00 +29°C° 0 mm 3 mps 726 mmHg 65%
    22:00 +28°C° 0.2 mm 3 mps 727 mmHg 69%
    23:00 +27°C° 0.2 mm 3 mps 727 mmHg 74%

    19 December, Tuesday

    Time Temperature Precipitation Wind Pressure Humidity
    00:00 +26°C° 0.2 mm 3 mps 727 mmHg 78%
    01:00 +26°C° 0 mm 3 mps 727 mmHg 80%
    02:00 +25°C° 0 mm 3 mps 726 mmHg 82%
    03:00 +25°C° 0 mm 3 mps 726 mmHg 83%
    04:00 +25°C° 0 mm 2 mps 726 mmHg 85%
    05:00 +25°C° 0 mm 2 mps 727 mmHg 86%
    06:00 +24°C° 0 mm 2 mps 727 mmHg 87%
    07:00 +26°C° 0 mm 3 mps 728 mmHg 80%
    08:00 +28°C° 0 mm 3 mps 728 mmHg 72%
    09:00 +30°C° 0 mm 4 mps 728 mmHg 65%
    10:00 +33°C° 0 mm 4 mps 728 mmHg 58%
    11:00 +34°C° 0 mm 3 mps 728 mmHg 52%
    12:00 +36°C° 0 mm 3 mps 728 mmHg 46%
    13:00 +36°C° 0 mm 3 mps 727 mmHg 45%
    14:00 +36°C° 0 mm 3 mps 726 mmHg 44%
    15:00 +36°C° 0 mm 2 mps 725 mmHg 43%
    16:00 +36°C° 0 mm 2 mps 725 mmHg 47%
    17:00 +35°C° 0 mm 2 mps 725 mmHg 50%
    18:00 +33°C° 0 mm 1 mps 725 mmHg 54%
    19:00 +32°C° 0.2 mm 2 mps 725 mmHg 57%
    20:00 +31°C° 0.2 mm 2 mps 725 mmHg 59%
    21:00 +30°C° 0.2 mm 2 mps 725 mmHg 62%
    22:00 +29°C° 0.8 mm 2 mps 726 mmHg 69%
    23:00 +28°C° 0.8 mm 2 mps 726 mmHg 75%
    Show more